KB6CYS Weather Reports


Display with metric or nautical units.
time (UTC)temp
F
wind
direction
speed
MPH
gust
MPH
rain 1hr
in
rain 24hr
in
rain mn
in
humidity
%
barometer
mb
20260510133504 61 293 0.0 2.0 0.00 0.00 0.00 1011.9
20260510133003 61 274 1.0 2.0 0.00 0.00 0.00 1011.9
20260510132502 61 316 0.0 2.0 0.00 0.00 0.00 1011.5
20260510132003 61 311 1.0 1.0 0.00 0.00 0.00 1011.5
20260510131503 61 270 0.0 2.0 0.00 0.00 0.00 1011.5
20260510131024 61 356 1.0 2.0 0.00 0.00 0.00 1011.5
20260510130503 61 286 1.0 2.0 0.00 0.00 0.00 1011.5
20260510130003 61 62 1.0 2.0 0.00 0.00 0.00 1011.5
20260510125503 61 43 1.0 2.0 0.00 0.00 0.00 1011.2
20260510125025 61 48 1.0 2.0 0.00 0.00 0.00 1010.9
20260510124502 61 240 0.0 3.0 0.00 0.00 0.00 1011.2
20260510124003 61 253 2.0 5.0 0.00 0.00 0.00 1011.5
20260510123502 61 231 3.0 5.0 0.00 0.00 0.00 1011.9
20260510123025 61 287 1.0 3.0 0.00 0.00 0.00 1011.9
20260510122502 61 244 2.0 3.0 0.00 0.00 0.00 1011.9
20260510122003 61 167 1.0 4.0 0.00 0.00 0.00 1011.9
20260510121503 61 145 1.0 4.0 0.00 0.00 0.00 1012.2
20260510121002 61 231 2.0 3.0 0.00 0.00 0.00 1011.9
20260510120503 61 212 1.0 3.0 0.00 0.00 0.00 1012.2
20260510120024 61 167 1.0 2.0 0.00 0.00 0.00 1011.9
20260510115504 61 235 1.0 2.0 0.00 0.00 0.00 1011.9
20260510115026 61 230 1.0 3.0 0.00 0.00 0.00 1011.5
20260510114526 61 289 2.0 3.0 0.00 0.00 0.00 1011.5
20260510114025 61 279 1.0 3.0 0.00 0.00 0.00 1011.9
20260510113524 61 205 1.0 3.0 0.00 0.00 0.00 1011.9
20260510113003 61 214 1.0 3.0 0.00 0.00 0.00 1011.9
20260510112524 61 245 1.0 3.0 0.00 0.00 0.00 1011.5
20260510112024 61 318 0.0 2.0 0.00 0.00 0.00 1011.9
20260510111502 61 295 1.0 2.0 0.00 0.00 0.00 1012.2
20260510111003 61 270 0.0 2.0 0.00 0.00 0.00 1012.6
20260510110524 61 232 1.0 2.0 0.00 0.00 0.00 1012.2
20260510110005 61 213 0.0 2.0 0.00 0.00 0.00 1011.9
20260510105502 60 343 0.0 2.0 0.00 0.00 0.00 1011.9
20260510105024 60 15 1.0 3.0 0.00 0.00 0.00 1011.5
20260510104502 61 84 2.0 3.0 0.00 0.00 0.00 1012.2
20260510104024 60 269 0.0 5.0 0.00 0.00 0.00 1011.9
20260510103503 60 262 2.0 5.0 0.00 0.00 0.00 1011.9
20260510103003 60 248 3.0 5.0 0.00 0.00 0.00 1011.9
20260510102502 60 268 2.0 5.0 0.00 0.00 0.00 1012.2
20260510102003 60 269 3.0 5.0 0.00 0.00 0.00 1012.2
20260510101503 60 247 3.0 5.0 0.00 0.00 0.00 1012.2
20260510101004 60 238 3.0 5.0 0.00 0.00 0.00 1012.2
20260510100502 60 251 3.0 5.0 0.00 0.00 0.00 1012.2
20260510100003 60 235 3.0 5.0 0.00 0.00 0.00 1011.9
20260510095503 61 254 2.0 3.0 0.00 0.00 0.00 1012.2
20260510095003 61 228 1.0 3.0 0.00 0.00 0.00 1011.9
20260510094502 61 199 1.0 5.0 0.00 0.00 0.00 1012.2
20260510094002 61 219 2.0 5.0 0.00 0.00 0.00 1011.9
20260510093525 61 221 1.0 4.0 0.00 0.00 0.00 1012.2
20260510093003 60 251 1.0 4.0 0.00 0.00 0.00 1012.2
20260510092503 60 243 3.0 4.0 0.00 0.00 0.00 1012.2
20260510092003 60 214 2.0 4.0 0.00 0.00 0.00 1012.6
20260510091502 60 276 2.0 4.0 0.00 0.00 0.00 1012.2
20260510091003 61 212 2.0 5.0 0.00 0.00 0.00 1012.2
20260510090503 61 218 3.0 5.0 0.00 0.00 0.00 1012.2
20260510090024 61 230 2.0 4.0 0.00 0.00 0.00 1011.9
20260510085503 61 240 1.0 4.0 0.00 0.00 0.00 1011.9
20260510085025 61 216 2.0 4.0 0.00 0.00 0.00 1011.9
20260510084524 61 246 2.0 4.0 0.00 0.00 0.00 1011.9
20260510084004 61 172 2.0 5.0 0.00 0.00 0.00 1011.9
20260510083504 61 151 2.0 5.0 0.00 0.00 0.00 1012.2
20260510083003 61 211 3.0 5.0 0.00 0.00 0.00 1012.2
20260510082503 61 226 2.0 5.0 0.00 0.00 0.00 1012.2
20260510082003 61 139 1.0 4.0 0.00 0.00 0.00 1012.2
20260510081502 61 100 2.0 4.0 0.00 0.00 0.00 1012.6
20260510081003 61 132 2.0 6.0 0.00 0.00 0.00 1011.9
20260510080504 61 197 4.0 6.0 0.00 0.00 0.00 1012.2
20260510080003 61 212 2.0 4.0 0.00 0.00 0.00 1012.6
20260510075502 61 199 2.0 3.0 0.00 0.00 0.00 1012.6
20260510075003 61 237 2.0 4.0 0.00 0.00 0.00 1012.9
20260510074502 61 181 2.0 5.0 0.00 0.00 0.00 1012.9
20260510074025 60 192 3.0 5.0 0.00 0.00 0.00 1012.9
20260510073503 60 235 1.0 3.0 0.00 0.00 0.00 1012.6
20260510073004 61 266 1.0 4.0 0.00 0.00 0.00 1012.9
20260510072502 61 136 1.0 4.0 0.00 0.00 0.00 1013.2
20260510072003 61 181 2.0 7.0 0.00 0.00 0.00 1012.9
20260510071503 61 132 2.0 7.0 0.00 0.00 0.00 1012.6
20260510071003 61 115 3.0 7.0 0.00 0.00 0.00 1013.2
20260510070524 61 152 3.0 7.0 0.00 0.00 0.00 1013.2
20260510070004 61 230 2.0 3.0 0.00 0.00 0.00 1012.6
20260510065503 62 186 1.0 5.0 0.00 0.00 0.00 1012.6
20260510065003 62 165 3.0 5.0 0.00 0.00 0.00 1012.9
20260510064524 62 191 3.0 5.0 0.00 0.00 0.00 1012.9
20260510064003 62 212 2.0 5.0 0.00 0.00 0.00 1012.9
20260510063504 62 160 1.0 7.0 0.00 0.00 0.00 1012.6
20260510063025 62 173 3.0 7.0 0.00 0.00 0.00 1012.9
20260510062503 61 188 3.0 6.0 0.00 0.00 0.00 1012.9
20260510062002 61 201 3.0 7.0 0.00 0.00 0.00 1012.9
20260510061503 62 187 4.0 7.0 0.00 0.00 0.00 1012.6
20260510061003 62 196 3.0 7.0 0.00 0.00 0.00 1013.2
20260510060503 62 196 2.0 7.0 0.00 0.00 0.00 1012.6
20260510060002 62 173 3.0 6.0 0.00 0.00 0.00 1013.2
20260510055503 62 173 3.0 6.0 0.00 0.00 0.00 1013.2
20260510055002 62 212 2.0 6.0 0.00 0.00 0.00 1013.2
20260510054503 62 184 4.0 8.0 0.00 0.00 0.00 1013.2
20260510054002 62 176 5.0 8.0 0.00 0.00 0.00 1013.2
20260510053501 63 164 3.0 6.0 0.00 0.00 0.00 1012.9
20260510053003 63 176 3.0 6.0 0.00 0.00 0.00 1012.9
20260510052502 63 184 4.0 6.0 0.00 0.00 0.00 1013.2
20260510052024 63 176 2.0 5.0 0.00 0.00 0.00 1013.2
20260510051524 63 217 1.0 3.0 0.00 0.00 0.00 1013.2
20260510051002 62 213 2.0 5.0 0.00 0.00 0.00 1013.2
20260510050503 62 211 2.0 5.0 0.00 0.00 0.00 1013.2
20260510050002 62 211 2.0 5.0 0.00 0.00 0.00 1013.2
20260510045501 62 223 3.0 4.0 0.00 0.00 0.00 1013.6
20260510045023 62 219 3.0 4.0 0.00 0.00 0.00 1013.2
20260510044503 62 244 2.0 4.0 0.00 0.00 0.00 1013.2
20260510044002 63 231 2.0 5.0 0.00 0.00 0.00 1013.2
20260510043504 63 218 3.0 5.0 0.00 0.00 0.00 1012.9
20260510043001 63 166 4.0 5.0 0.00 0.00 0.00 1012.9
20260510042502 63 175 4.0 5.0 0.00 0.00 0.00 1012.6
20260510042002 63 180 3.0 4.0 0.00 0.00 0.00 1012.9
20260510041504 63 160 3.0 4.0 0.00 0.00 0.00 1012.6
20260510041023 63 142 3.0 5.0 0.00 0.00 0.00 1012.9
20260510040502 63 148 3.0 5.0 0.00 0.00 0.00 1012.2
20260510040001 63 125 2.0 4.0 0.00 0.00 0.00 1012.6
20260510035503 64 140 2.0 6.0 0.00 0.00 0.00 1012.2
20260510035002 64 141 3.0 6.0 0.00 0.00 0.00 1012.2
20260510034502 64 146 3.0 6.0 0.00 0.00 0.00 1012.2
20260510034002 64 158 3.0 5.0 0.00 0.00 0.00 1012.2
20260510033504 65 163 3.0 8.0 0.00 0.00 0.00 1012.2
20260510033023 65 153 3.0 8.0 0.00 0.00 0.00 1011.9
20260510032502 65 144 3.0 7.0 0.00 0.00 0.00 1011.5
20260510032002 65 174 4.0 7.0 0.00 0.00 0.00 1012.6
20260510031524 65 163 3.0 8.0 0.00 0.00 0.00 1011.9
20260510031002 65 179 4.0 8.0 0.00 0.00 0.00 1011.5
20260510030503 66 176 4.0 9.0 0.00 0.00 0.00 1011.9
20260510030002 66 168 4.0 9.0 0.00 0.00 0.00 1011.5
20260510025524 67 146 3.0 9.0 0.00 0.00 0.00 1011.5
20260510025002 67 172 5.0 9.0 0.00 0.00 0.00 1011.2
20260510024502 67 183 5.0 9.0 0.00 0.00 0.00 1011.2
20260510024003 67 166 4.0 9.0 0.00 0.00 0.00 1011.5
20260510023523 68 169 4.0 9.0 0.00 0.00 0.00 1011.2
20260510023002 68 161 4.0 9.0 0.00 0.00 0.00 1011.2
20260510022502 69 179 6.0 8.0 0.00 0.00 0.00 1010.9
20260510022003 69 173 5.0 9.0 0.00 0.00 0.00 1011.5
20260510021502 70 172 4.0 11.0 0.00 0.00 0.00 1011.2
20260510021001 71 169 6.0 11.0 0.00 0.00 0.00 1011.2
20260510020502 72 180 5.0 9.0 0.00 0.00 0.00 1011.2
20260510020024 72 172 5.0 10.0 0.00 0.00 0.00 1011.2
20260510015501 72 180 6.0 10.0 0.00 0.00 0.00 1010.9
20260510015023 73 189 5.0 11.0 0.00 0.00 0.00 1011.2
20260510014502 73 169 4.0 11.0 0.00 0.00 0.00 1011.2
20260510014002 74 181 5.0 11.0 0.00 0.00 0.00 1011.5
20260510013502 74 170 6.0 11.0 0.00 0.00 0.00 1011.5
20260510013001 73 212 6.0 11.0 0.00 0.00 0.00 1011.2
20260510012523 74 201 5.0 10.0 0.00 0.00 0.00 1011.5
20260510012003 75 181 5.0 10.0 0.00 0.00 0.00 1011.5
20260510011503 74 193 5.0 9.0 0.00 0.00 0.00 1011.5
20260510011003 74 174 6.0 11.0 0.00 0.00 0.00 1011.2
20260510010502 74 211 6.0 11.0 0.00 0.00 0.00 1011.2
20260510010001 74 206 5.0 11.0 0.00 0.00 0.00 1011.2
20260510005503 74 212 6.0 11.0 0.00 0.00 0.00 1011.5
20260510005002 74 203 5.0 10.0 0.00 0.00 0.00 1011.2
20260510004502 74 214 5.0 10.0 0.00 0.00 0.00 1011.2
20260510004002 74 187 7.0 10.0 0.00 0.00 0.00 1010.9
20260510003502 74 220 6.0 13.0 0.00 0.00 0.00 1010.5
20260510003003 75 193 5.0 13.0 0.00 0.00 0.00 1010.9
20260510002523 76 181 6.0 12.0 0.00 0.00 0.00 1011.5
20260510002002 75 201 6.0 13.0 0.00 0.00 0.00 1010.9
20260510001503 75 179 6.0 13.0 0.00 0.00 0.00 1010.5
20260510001001 76 190 6.0 12.0 0.00 0.00 0.00 1010.9
20260510000502 76 179 5.0 12.0 0.00 0.00 0.00 1010.9
20260510000023 75 213 7.0 12.0 0.00 0.00 0.00 1010.5
20260509235503 76 193 5.0 12.0 0.00 0.00 0.00 1010.5
20260509235023 76 197 5.0 12.0 0.00 0.00 0.00 1010.9
20260509234502 76 185 5.0 11.0 0.00 0.00 0.00 1010.9
20260509234003 76 183 6.0 12.0 0.00 0.00 0.00 1010.9
20260509233502 76 178 6.0 14.0 0.00 0.00 0.00 1010.5
20260509233023 75 174 8.0 14.0 0.00 0.00 0.00 1010.9
20260509232524 75 225 7.0 13.0 0.00 0.00 0.00 1010.5
20260509232002 75 206 4.0 12.0 0.00 0.00 0.00 1010.9
20260509231501 76 190 8.0 12.0 0.00 0.00 0.00 1010.5
20260509231002 76 199 6.0 12.0 0.00 0.00 0.00 1010.9
20260509230503 76 185 7.0 12.0 0.00 0.00 0.00 1010.9
20260509230002 76 186 7.0 12.0 0.00 0.00 0.00 1011.2
20260509225502 75 181 5.0 11.0 0.00 0.00 0.00 1010.9
20260509225001 75 220 7.0 12.0 0.00 0.00 0.00 1010.9
20260509224502 75 209 6.0 12.0 0.00 0.00 0.00 1010.2
20260509224002 76 215 6.0 12.0 0.00 0.00 0.00 1010.5
20260509223502 76 183 5.0 10.0 0.00 0.00 0.00 1010.9
20260509223023 75 196 5.0 13.0 0.00 0.00 0.00 1011.5
20260509222502 75 224 5.0 13.0 0.00 0.00 0.00 1011.2
20260509222024 75 220 6.0 11.0 0.00 0.00 0.00 1011.5
20260509221502 75 216 6.0 12.0 0.00 0.00 0.00 1011.2
20260509221024 74 237 7.0 12.0 0.00 0.00 0.00 1011.2
20260509220501 75 255 7.0 11.0 0.00 0.00 0.00 1011.5
20260509220002 75 226 5.0 13.0 0.00 0.00 0.00 1011.2
20260509215502 74 236 7.0 13.0 0.00 0.00 0.00 1011.2
20260509215003 75 233 6.0 12.0 0.00 0.00 0.00 1011.2
20260509214524 74 217 5.0 12.0 0.00 0.00 0.00 1011.5
20260509214003 74 232 7.0 12.0 0.00 0.00 0.00 1010.5
20260509213503 76 237 8.0 12.0 0.00 0.00 0.00 1010.9
20260509213001 75 206 6.0 12.0 0.00 0.00 0.00 1011.2
20260509212502 75 208 5.0 13.0 0.00 0.00 0.00 1011.2
20260509212003 74 228 8.0 13.0 0.00 0.00 0.00 1011.5
20260509211524 74 200 5.0 16.0 0.00 0.00 0.00 1011.5
20260509211024 73 239 8.0 16.0 0.00 0.00 0.00 1012.2
20260509210502 73 256 6.0 13.0 0.00 0.00 0.00 1012.2
20260509210003 74 234 8.0 15.0 0.00 0.00 0.00 1011.5
20260509205502 74 220 7.0 15.0 0.00 0.00 0.00 1011.9
20260509205003 74 237 6.0 13.0 0.00 0.00 0.00 1011.9
20260509204503 76 181 4.0 10.0 0.00 0.00 0.00 1011.9
20260509204002 75 213 5.0 12.0 0.00 0.00 0.00 1011.5
20260509203523 75 216 6.0 12.0 0.00 0.00 0.00 1011.5
20260509203002 74 205 4.0 9.0 0.00 0.00 0.00 1011.9
20260509202502 74 212 6.0 10.0 0.00 0.00 0.00 1011.9
20260509202002 74 214 6.0 10.0 0.00 0.00 0.00 1012.2
20260509201502 74 220 7.0 10.0 0.00 0.00 0.00 1011.2
20260509201003 74 194 4.0 11.0 0.00 0.00 0.00 1011.9
20260509200502 73 229 3.0 11.0 0.00 0.00 0.00 1011.9
20260509200002 73 229 6.0 12.0 0.00 0.00 0.00 1011.9
20260509195503 73 229 8.0 12.0 0.00 0.00 0.00 1011.9
20260509195002 74 229 6.0 10.0 0.00 0.00 0.00 1011.9
20260509194502 74 186 5.0 10.0 0.00 0.00 0.00 1012.2
20260509194023 74 229 6.0 12.0 0.00 0.00 0.00 1011.9
20260509193502 74 205 5.0 12.0 0.00 0.00 0.00 1011.9
20260509193002 73 206 5.0 15.0 0.00 0.00 0.00 1011.9
20260509192502 72 198 3.0 15.0 0.00 0.00 0.00 1012.2
20260509192003 72 228 5.0 9.0 0.00 0.00 0.00 1011.5
20260509191501 72 201 4.0 9.0 0.00 0.00 0.00 1012.6
20260509191023 72 228 5.0 11.0 0.00 0.00 0.00 1012.2
20260509190502 73 225 7.0 11.0 0.00 0.00 0.00 1012.6
20260509190025 73 199 4.0 10.0 0.00 0.00 0.00 1012.2
20260509185523 73 175 4.0 10.0 0.00 0.00 0.00 1012.2
20260509185002 73 179 3.0 10.0 0.00 0.00 0.00 1012.6
20260509184503 72 175 7.0 10.0 0.00 0.00 0.00 1012.2
20260509184002 71 191 4.0 9.0 0.00 0.00 0.00 1012.2
20260509183502 70 211 4.0 9.0 0.00 0.00 0.00 1012.6
20260509183023 69 219 4.0 11.0 0.00 0.00 0.00 1012.6
20260509182502 70 216 6.0 11.0 0.00 0.00 0.00 1012.6
20260509182003 69 222 5.0 11.0 0.00 0.00 0.00 1012.6
20260509181502 70 212 6.0 11.0 0.00 0.00 0.00 1012.9
20260509181002 69 226 5.0 9.0 0.00 0.00 0.00 1012.6
20260509180502 69 146 3.0 9.0 0.00 0.00 0.00 1012.6
20260509180002 69 223 5.0 9.0 0.00 0.00 0.00 1011.9
20260509175502 68 262 3.0 8.0 0.00 0.00 0.00 1012.2
20260509175002 69 172 5.0 8.0 0.00 0.00 0.00 1012.6
20260509174524 69 148 3.0 6.0 0.00 0.00 0.00 1012.6
20260509174025 68 302 2.0 5.0 0.00 0.00 0.00 1012.6
20260509173502 69 241 2.0 8.0 0.00 0.00 0.00 1012.6
20260509173002 68 199 4.0 8.0 0.00 0.00 0.00 1012.9
20260509172502 69 71 3.0 7.0 0.00 0.00 0.00 1012.2
20260509172002 68 174 5.0 7.0 0.00 0.00 0.00 1012.6
20260509171502 67 174 3.0 7.0 0.00 0.00 0.00 1012.6
20260509171003 66 181 3.0 6.0 0.00 0.00 0.00 1012.6
20260509170503 66 257 4.0 7.0 0.00 0.00 0.00 1012.2
20260509170003 67 236 4.0 7.0 0.00 0.00 0.00 1012.6
20260509165523 66 196 0.0 5.0 0.00 0.00 0.00 1012.2
20260509165002 66 195 3.0 6.0 0.00 0.00 0.00 1012.2
20260509164524 66 225 4.0 6.0 0.00 0.00 0.00 1011.9
20260509164002 66 170 3.0 5.0 0.00 0.00 0.00 1012.2
20260509163502 66 180 1.0 7.0 0.00 0.00 0.00 1012.2
20260509163003 66 179 3.0 7.0 0.00 0.00 0.00 1012.6
20260509162523 66 69 2.0 5.0 0.00 0.00 0.00 1012.6
20260509162023 65 173 2.0 5.0 0.00 0.00 0.00 1011.9
20260509161503 65 191 2.0 5.0 0.00 0.00 0.00 1012.2
20260509161003 64 170 4.0 5.0 0.00 0.00 0.00 1012.2
20260509160502 64 208 1.0 4.0 0.00 0.00 0.00 1012.2
20260509160023 64 153 2.0 4.0 0.00 0.00 0.00 1012.2
20260509155523 64 213 1.0 4.0 0.00 0.00 0.00 1012.6
20260509155001 64 85 2.0 4.0 0.00 0.00 0.00 1012.6
20260509154523 64 167 2.0 4.0 0.00 0.00 0.00 1012.6
20260509154002 63 152 2.0 5.0 0.00 0.00 0.00 1012.2
20260509153502 63 167 3.0 5.0 0.00 0.00 0.00 1012.9
20260509153002 63 183 2.0 4.0 0.00 0.00 0.00 1012.2
20260509152502 63 355 1.0 3.0 0.00 0.00 0.00 1012.2
20260509152024 63 139 0.0 3.0 0.00 0.00 0.00 1012.2
20260509151503 63 190 2.0 3.0 0.00 0.00 0.00 1012.6
20260509151002 63 146 2.0 7.0 0.00 0.00 0.00 1012.6
20260509150502 62 171 4.0 7.0 0.00 0.00 0.00 1012.9
20260509150002 62 107 2.0 5.0 0.00 0.00 0.00 1013.2
20260509145502 62 92 2.0 5.0 0.00 0.00 0.00 1012.6
20260509145003 62 141 1.0 5.0 0.00 0.00 0.00 1012.9
20260509144503 62 136 2.0 5.0 0.00 0.00 0.00 1012.9
20260509144003 62 190 3.0 5.0 0.00 0.00 0.00 1012.2
20260509143502 62 163 2.0 5.0 0.00 0.00 0.00 1012.2
20260509143002 62 128 2.0 5.0 0.00 0.00 0.00 1012.2
20260509142501 62 123 2.0 3.0 0.00 0.00 0.00 1012.2
20260509142024 62 151 1.0 4.0 0.00 0.00 0.00 1012.2
20260509141502 61 155 2.0 4.0 0.00 0.00 0.00 1012.2
20260509141003 62 177 2.0 3.0 0.00 0.00 0.00 1011.9
20260509140501 61 159 1.0 3.0 0.00 0.00 0.00 1012.6
20260509140002 61 76 1.0 2.0 0.00 0.00 0.00 1012.2
20260509135524 61 68 1.0 3.0 0.00 0.00 0.00 1012.6
20260509135002 61 68 1.0 3.0 0.00 0.00 0.00 1012.6
20260509134502 61 279 1.0 2.0 0.00 0.00 0.00 1011.9
20260509134024 61 275 1.0 2.0 0.00 0.00 0.00 1011.9